Location: Ames
(42.0350°N, 93.6200°W)
Time: 13:09:59
(UTC-06:00)

ISS - All Passes

Search period start: 26 February 2017 00:00
Search period end: 08 March 2017 00:00
Orbit: 399 x 408 km, 51.6° (Epoch: 27 February)

Date Brightness Start Highest point End Pass type
(mag) Time Alt. Az. Time Alt. Az. Time Alt. Az.
26 Feb - 07:39:53 10° SW 07:43:06 52° SE 07:46:20 10° ENE daylight
26 Feb - 09:16:50 10° W 09:19:43 27° NNW 09:22:36 10° NE daylight
26 Feb - 10:54:55 10° NW 10:56:59 15° N 10:59:03 10° NE daylight
26 Feb - 12:31:35 10° NW 12:34:19 23° NNE 12:37:03 10° ENE daylight
26 Feb - 14:07:46 10° WNW 14:11:02 71° SW 14:14:18 10° SE daylight
27 Feb - 06:47:50 10° SSW 06:50:41 27° SE 06:53:32 10° ENE daylight
27 Feb - 08:23:54 10° W 08:27:02 39° NNW 08:30:11 10° NE daylight
27 Feb - 10:01:58 10° NW 10:04:10 16° N 10:06:22 10° NE daylight
27 Feb - 11:39:07 10° NW 11:41:33 19° NNE 11:43:58 10° ENE daylight
27 Feb - 13:15:14 10° NW 13:18:31 62° NNE 13:21:46 10° ESE daylight
27 Feb - 14:52:34 10° W 14:54:38 16° SW 14:56:42 10° S daylight
28 Feb - 05:56:25 10° SSE 05:58:19 15° SE 06:00:14 10° E visible
28 Feb - 07:31:08 10° WSW 07:34:26 68° NNW 07:37:43 10° NE daylight
28 Feb - 09:08:53 10° WNW 09:11:21 19° NNW 09:13:49 10° NE daylight
28 Feb - 10:46:33 10° NW 10:48:44 16° N 10:50:54 10° NE daylight
28 Feb - 12:22:46 10° NW 12:25:53 37° NNE 12:28:58 10° E daylight
28 Feb - 13:59:22 10° WNW 14:02:16 29° SW 14:05:10 10° SSE daylight
01 Mar - 06:38:36 10° SW 06:41:52 65° SE 06:45:09 10° ENE daylight
01 Mar - 08:15:47 10° WNW 08:18:34 24° NNW 08:21:21 10° NE daylight
01 Mar - 09:53:48 10° NW 09:55:53 15° N 09:57:56 10° NE daylight
01 Mar - 11:30:19 10° NW 11:33:09 26° NNE 11:36:00 10° E daylight
01 Mar - 13:06:34 10° WNW 13:09:49 57° SW 13:13:02 10° SE daylight
02 Mar - 05:46:24 10° SSW 05:49:23 33° SE 05:52:24 10° ENE visible
02 Mar - 07:22:46 10° W 07:25:50 34° NNW 07:28:54 10° NE daylight
02 Mar - 09:00:52 10° NW 09:03:01 16° N 09:05:09 10° NE daylight
02 Mar - 10:37:51 10° NW 10:40:23 20° NNE 10:42:54 10° ENE daylight
02 Mar - 12:13:58 10° NW 12:17:15 76° NNE 12:20:33 10° ESE daylight
02 Mar - 13:51:44 10° WSW 13:53:18 13° SW 13:54:52 10° SSW daylight
03 Mar - 04:54:40 10° S 04:56:58 18° SE 04:59:17 10° E visible
03 Mar - 06:29:54 10° WSW 06:33:09 56° NNW 06:36:25 10° NE daylight
03 Mar - 08:07:46 10° WNW 08:10:09 18° NNW 08:12:31 10° NE daylight
03 Mar - 09:45:17 10° NW 09:47:32 17° N 09:49:47 10° NE daylight
03 Mar - 11:21:27 10° NW 11:24:37 43° NNE 11:27:47 10° ESE daylight
03 Mar - 12:58:12 10° W 13:00:56 24° SW 13:03:38 10° S daylight
04 Mar - 05:37:15 10° SW 05:40:32 80° SE 05:43:50 10° ENE visible
04 Mar - 07:14:38 10° WNW 07:17:18 22° NNW 07:20:00 10° NE daylight
04 Mar - 08:52:34 10° NW 08:54:38 15° N 08:56:43 10° NE daylight
04 Mar - 10:28:57 10° NW 10:31:53 29° NNE 10:34:49 10° E daylight
04 Mar - 12:05:17 10° WNW 12:08:28 46° SW 12:11:37 10° SE daylight
05 Mar - 04:44:53 10° SSW 04:47:59 41° SE 04:51:07 10° ENE visible
05 Mar - 06:21:32 10° W 06:24:31 30° NNW 06:27:30 10° NE daylight
05 Mar - 07:59:38 10° NW 08:01:45 16° N 08:03:50 10° NE daylight
05 Mar - 09:36:28 10° NW 09:39:05 21° NNE 09:41:42 10° ENE daylight
05 Mar - 11:12:35 10° NW 11:15:53 89° WSW 11:19:10 10° SE daylight
05 Mar - 12:51:13 10° WSW 12:51:51 10° SW 12:52:29 10° SW daylight
06 Mar - 03:52:56 10° S 03:55:31 22° SE 03:58:07 10° E visible
06 Mar - 05:28:35 10° WSW 05:31:47 47° NNW 05:34:59 10° NE visible
06 Mar - 07:06:32 10° NW 07:08:49 17° N 07:11:07 10° NE daylight
06 Mar - 08:43:53 10° NW 08:46:13 18° N 08:48:32 10° NE daylight
06 Mar - 10:20:01 10° NW 10:23:14 51° NNE 10:26:27 10° ESE daylight
06 Mar - 11:56:59 10° W 11:59:28 20° SW 12:01:56 10° S daylight
07 Mar - 03:01:57 10° SSE 03:03:06 11° SE 03:04:16 10° ESE visible
07 Mar - 04:35:49 10° WSW 04:39:05 84° NW 04:42:24 10° NE visible
07 Mar - 06:13:21 10° WNW 06:15:56 21° NNW 06:18:31 10° NE visible
07 Mar - 07:51:11 10° NW 07:53:18 16° N 07:55:25 10° NE daylight
07 Mar - 09:27:28 10° NW 09:30:30 32° NNE 09:33:30 10° E daylight
07 Mar - 11:03:54 10° WNW 11:06:58 37° SW 11:10:02 10° SSE daylight
